GW3934 Weather Reports


time (UTC)temp
C
wind
direction
speed
KPH
gust
KPH
rain 1hr
cm
rain 24hr
cm
rain mn
cm
humidity
%
barometer
mb
20260504172816 20 0.0 1.6 0.00 0.00 0.00 36 1011.3
20260504171816 19 125 0.0 4.8 0.00 0.00 0.00 39 1011.4
20260504170815 20 257 1.6 6.4 0.00 0.00 0.00 36 1011.6
20260504150816 17 242 0.0 9.7 0.00 0.00 0.00 40 1012.8
20260504140815 15 0.0 0.0 0.00 0.00 0.00 48 1013.0
20260504130815 12 0.0 0.0 0.00 0.00 0.00 54 1013.5
20260504100337 -17 0.0 0.0 0.00 0.00 0.00
20260504081915 8 0.0 0.0 0.00 0.00 0.00 55 1013.1
20260504080916 8 0.0 0.0 0.00 0.00 0.00 55 1013.1
20260504045917 9 0.0 0.0 0.00 0.00 0.00 51 1012.6
20260504044915 9 0.0 0.0 0.00 0.00 0.00 51 1012.5
20260504043915 9 0.0 0.0 0.00 0.00 0.00 50 1012.5
20260504042915 9 0.0 0.0 0.00 0.00 0.00 50 1012.4
20260504041915 9 0.0 0.0 0.00 0.00 0.00 50 1012.2
20260504040915 9 0.0 0.0 0.00 0.00 0.00 49 1012.1
20260504040515 9 0.0 0.0 0.00 0.00 0.00 50 1012.1
20260504035535 10 0.0 0.0 0.00 0.00 0.00 49 1012.1
20260504034536 10 0.0 0.0 0.00 0.00 0.00 48 1012.1
20260504033515 9 0.0 0.0 0.00 0.00 0.00 50 1012.1
20260504032516 10 0.0 0.0 0.00 0.00 0.00 48 1012.2
20260504031515 10 0.0 0.0 0.00 0.00 0.00 48 1012.1
20260504030515 10 0.0 0.0 0.00 0.00 0.00 48 1012.1
20260504025515 10 0.0 0.0 0.00 0.00 0.00 47 1012.1
20260504024515 9 0.0 0.0 0.00 0.00 0.00 49 1012.0
20260504023515 9 0.0 0.0 0.00 0.00 0.00 48 1012.1
20260504022515 9 0.0 0.0 0.00 0.00 0.00 48 1012.0
20260504021515 9 0.0 0.0 0.00 0.00 0.00 47 1012.1
20260504020535 9 0.0 0.0 0.00 0.00 0.00 48 1012.1
20260504015535 9 0.0 0.0 0.00 0.00 0.00 48 1012.1
20260504014515 9 0.0 0.0 0.00 0.00 0.00 48 1011.9
20260504013515 9 0.0 0.0 0.00 0.00 0.00 46 1011.9
20260504012515 10 0.0 0.0 0.00 0.00 0.00 49 1011.9
20260504011515 10 0.0 0.0 0.00 0.00 0.00 45 1011.8
20260504010515 10 0.0 0.0 0.00 0.00 0.00 47 1011.7
20260504005515 10 0.0 0.0 0.00 0.00 0.00 44 1011.5
20260504004515 11 0.0 0.0 0.00 0.00 0.00 43 1011.5
20260504003515 11 0.0 0.0 0.00 0.00 0.00 39 1011.3
20260504002535 11 0.0 0.0 0.00 0.00 0.00 39 1011.2
20260504001515 12 0.0 0.0 0.00 0.00 0.00 38 1011.0
20260504000535 12 0.0 0.0 0.00 0.00 0.00 38 1010.9
20260503221515 14 0.0 3.2 0.00 0.00 0.00 29
20260503220515 14 301 3.2 8.0 0.00 0.00 0.00 29
20260503215535 15 0.0 0.0 0.00 0.00 0.00 29
20260503214515 14 355 3.2 9.7 0.00 0.00 0.00 29
20260503213517 14 267 0.0 4.8 0.00 0.00 0.00 29
20260503212517 14 0.0 0.0 0.00 0.00 0.00 29
20260503211537 14 352 1.6 6.4 0.00 0.00 0.00 29 1010.1
20260503210517 14 314 1.6 12.9 0.00 0.00 0.00 29 1010.0
20260503205517 14 302 1.6 8.0 0.00 0.00 0.00 28 1009.9
20260503204517 14 308 1.6 9.7 0.00 0.00 0.00 30 1010.2
20260503203536 14 279 0.0 4.8 0.00 0.00 0.00 31 1010.2
20260503202517 13 336 1.6 4.8 0.00 0.00 0.00 32 1010.1
20260503201536 13 348 1.6 8.0 0.00 0.00 0.00 31 1010.2
20260503200517 13 0.0 3.2 0.00 0.00 0.00 31 1010.3
20260503195517 13 358 1.6 4.8 0.00 0.00 0.00 31 1010.4
20260503194516 13 0.0 8.0 0.00 0.00 0.00 31 1010.4
20260503193516 13 238 0.0 3.2 0.00 0.00 0.00 32 1010.3
20260503192517 13 0.0 1.6 0.00 0.00 0.00 35 1010.5
20260503191516 13 353 1.6 8.0 0.00 0.00 0.00 34 1010.6
20260503190516 13 334 6.4 11.3 0.00 0.00 0.00 33 1010.7
20260503185517 12 0.0 0.0 0.00 0.00 0.00 34 1010.8
20260503184517 12 0.0 0.0 0.00 0.00 0.00 35 1010.7
20260503184316 12 159 3.2 12.9 0.00 0.00 0.00 34 1010.8
20260503183316 13 0.0 0.0 0.00 0.00 0.00 35 1010.9
20260503182316 12 0.0 4.8 0.00 0.00 0.00 35 1010.8
20260503181315 12 0.0 6.4 0.00 0.00 0.00 37 1010.9
20260503180315 12 37 1.6 12.9 0.00 0.00 0.00 38 1011.0
20260503175315 12 273 0.0 6.4 0.00 0.00 0.00 38 1011.1
20260503174315 12 269 0.0 1.6 0.00 0.00 0.00 38 1011.3
20260503173315 11 6 0.0 4.8 0.00 0.00 0.00 39 1011.2